Wind_Speed
14 14 14 15 14 14 14 14 14 14 13 13 13 12 12 12 12 11 10 10 10 10 11 11 11 11 11 11 11 11 10 9 9 8 8 8 8 8 7 8 8 8 8 8 8 8 9 10 10 9 8 8 8 6 5 4 3 3 2 2 1 2 3 3 4 5 6 6 7 8 8 9 10 9 10 12 12 11 10 9 9 10 9 9 8
14 14 14 15 15 14 14 14 14 13 13 13 13 12 12 12 12 11 10 10 10 10 11 11 11 10 10 11 11 10 10 9 8 7 7 7 7 8 8 8 7 7 8 8 8 8 9 10 11 10 9 9 8 7 5 4 3 3 2 1 2 3 3 4 4 6 8 8 8 10 10 10 11 10 11 11 11 10 10 10 11 10 9 8 8
14 14 15 15 15 15 14 14 14 13 13 13 13 13 13 13 12 11 11 10 10 11 11 11 11 10 10 10 10 10 9 9 8 7 7 6 6 7 8 8 8 7 7 7 8 8 9 11 12 11 10 9 7 6 5 4 3 2 2 2 3 4 4 4 5 6 8 8 8 10 11 11 11 11 11 11 11 11 11 11 11 10 9 8 7
15 15 16 16 16 16 15 14 14 14 14 14 13 13 13 12 11 11 11 11 11 11 11 11 11 10 10 10 10 9 9 8 7 7 6 7 7 7 7 7 7 7 7 7 8 9 10 11 12 11 10 9 8 6 5 5 4 3 4 4 4 5 5 5 5 7 9 8 9 9 10 11 12 12 11 11 12 12 12 12 11 10 8 7 6
15 16 16 16 17 16 15 15 14 14 14 14 13 13 12 12 11 11 11 11 11 11 11 11 10 10 10 10 10 9 8 8 7 5 5 6 6 6 5 5 7 8 7 7 8 9 10 11 11 11 10 9 8 6 5 5 5 5 5 5 5 5 5 5 6 9 10 9 10 10 11 12 12 12 11 11 13 13 13 12 10 9 8 7 7
15 16 16 17 17 16 16 15 14 14 14 14 13 13 12 12 11 11 11 12 11 11 11 10 10 10 10 10 10 9 8 7 6 3 4 4 5 5 4 6 7 7 8 8 8 8 9 10 10 10 9 7 6 5 5 5 5 5 5 6 6 6 6 6 8 11 11 11 11 11 12 13 12 12 11 13 14 14 12 11 10 8 8 7 7
15 15 16 16 16 16 15 14 13 13 13 13 13 12 12 12 12 11 11 11 11 10 10 9 9 10 10 10 10 9 8 6 5 2 1 3 5 5 4 5 4 5 7 8 8 8 9 10 9 8 8 6 5 5 5 6 6 5 6 6 6 7 8 8 9 11 13 14 13 12 14 13 12 12 13 15 15 13 12 10 9 8 8 8 8
15 15 15 16 16 15 15 14 13 13 13 12 12 12 12 12 11 11 11 11 10 10 9 9 9 10 10 10 9 8 7 6 4 2 2 5 6 5 3 3 3 5 7 8 8 9 10 10 9 8 7 6 5 6 7 7 7 7 7 8 8 9 10 10 10 10 12 15 15 14 15 14 13 13 14 15 14 13 11 9 9 9 8 9 10
15 15 15 15 15 14 14 13 13 12 12 12 12 11 12 11 11 11 11 10 9 9 9 9 9 9 9 9 9 8 6 5 4 3 3 7 8 7 5 5 7 8 9 9 9 10 10 10 9 8 7 5 5 6 7 9 9 9 9 9 10 11 12 12 12 12 12 14 15 15 14 14 13 14 15 15 13 12 11 9 9 9 9 11 13
15 15 14 15 15 14 14 13 13 12 12 11 11 11 11 11 11 11 10 10 9 9 9 8 8 8 8 9 9 8 6 5 5 4 6 9 10 10 9 10 12 12 11 11 10 10 10 10 10 9 8 6 5 6 8 10 11 10 11 12 13 14 14 14 14 14 15 15 14 14 13 13 14 15 15 14 13 11 10 10 10 10 11 13 15
15 15 15 14 14 14 14 13 13 12 11 11 11 11 11 11 11 11 10 9 8 8 8 8 8 8 8 9 9 8 7 6 6 6 8 11 13 15 13 13 14 13 13 12 11 10 10 10 10 9 9 8 8 9 10 11 12 12 13 14 15 16 16 15 16 16 16 16 15 14 13 13 14 14 14 13 12 11 10 10 10 11 13 14 16
15 15 14 14 13 13 13 13 13 12 11 11 11 11 11 11 11 11 10 9 9 9 9 8 8 8 8 9 8 8 7 6 8 9 9 12 16 18 16 15 15 14 13 11 10 10 10 10 10 10 10 11 12 13 14 13 13 14 15 16 17 17 17 17 17 17 16 16 15 14 14 14 14 14 13 12 11 10 11 10 11 12 14 15 16
14 13 14 14 13 13 13 13 12 11 11 11 11 11 11 11 11 11 11 11 10 9 9 9 9 9 9 9 9 8 7 8 10 11 10 12 16 18 17 15 15 14 13 12 12 12 13 13 14 13 13 14 15 16 16 15 15 16 18 18 19 18 18 18 18 17 16 15 15 15 15 14 14 13 12 11 11 11 10 11 12 14 15 15 16
13 13 13 13 13 13 13 12 11 10 10 11 11 11 12 12 12 12 12 12 11 10 9 10 10 10 10 9 8 8 7 9 12 13 12 14 16 17 15 15 15 14 13 14 15 15 16 16 17 18 18 18 18 18 18 18 18 19 20 20 19 19 18 18 17 17 16 16 15 15 14 14 13 12 11 11 11 10 10 12 14 15 15 16 15
13 13 12 12 12 12 12 11 10 9 10 11 12 12 12 13 13 13 13 13 12 10 10 10 10 10 10 9 8 8 8 9 13 15 15 15 15 16 15 15 16 15 16 17 18 18 17 17 19 20 21 21 21 21 21 20 20 21 20 20 19 18 18 17 17 16 16 15 14 13 13 12 11 11 11 11 10 10 11 13 15 15 15 15 15
13 12 12 12 12 12 11 10 10 9 10 11 12 12 13 13 13 13 13 13 12 11 10 10 10 10 10 9 8 8 9 10 13 15 16 15 15 15 15 17 18 18 19 20 20 20 19 19 19 19 20 21 22 22 22 22 21 21 20 19 18 17 17 16 16 15 14 13 12 12 11 10 10 10 11 10 10 11 13 15 16 15 15 14 13
14 12 12 12 12 11 10 10 9 9 10 12 12 13 13 13 13 13 14 13 13 11 10 9 9 10 9 8 9 9 9 11 13 16 16 15 14 15 17 19 20 20 20 21 21 21 21 21 20 20 20 20 21 21 21 21 20 20 19 18 17 16 16 15 15 14 13 12 11 10 10 10 10 10 10 10 10 12 14 16 15 15 14 13 12
14 13 12 12 11 11 10 9 10 10 11 11 11 12 13 12 13 13 14 13 13 12 10 9 9 9 9 9 9 9 9 11 14 16 16 14 12 13 17 20 22 22 21 21 21 21 21 21 21 20 19 19 20 20 19 18 18 17 17 16 16 15 14 14 13 12 11 11 11 10 10 10 10 10 10 10 11 14 15 15 14 13 12 12 11
14 13 12 11 11 10 10 9 10 10 11 11 10 12 12 12 13 14 14 13 13 13 11 9 8 9 9 10 10 10 10 11 14 16 17 14 12 12 14 19 22 22 21 21 21 21 21 20 20 19 18 18 18 18 17 16 16 15 14 14 13 13 12 12 12 11 11 10 10 10 10 10 10 10 10 11 13 15 15 14 13 12 11 11 10
14 13 12 11 11 10 10 10 10 10 11 11 10 11 11 12 13 14 14 13 13 13 11 10 9 9 9 10 10 11 11 11 12 15 17 16 14 13 13 15 19 21 21 21 21 21 20 19 18 17 17 17 16 16 15 14 13 13 12 12 11 11 11 11 11 10 10 10 10 10 9 9 9 10 12 13 14 14 14 13 12 11 10 10 9
14 13 12 11 10 10 10 10 10 10 11 11 11 10 10 11 12 13 14 14 13 13 12 11 9 9 10 11 11 11 11 11 12 13 15 18 17 15 13 13 15 19 21 21 21 21 19 18 17 16 15 15 14 14 13 13 12 12 11 11 11 10 10 11 10 10 10 9 10 9 9 9 10 12 14 14 14 14 13 12 11 10 9 8 8
13 13 12 11 10 10 10 10 10 10 10 11 11 10 9 11 12 13 15 14 14 13 12 11 10 10 10 11 11 12 12 12 12 12 14 17 19 19 15 13 14 17 20 21 21 20 19 18 16 15 14 13 13 12 12 12 12 12 11 11 10 10 10 11 10 10 10 10 10 10 10 11 12 14 15 15 14 13 12 11 11 10 9 8 8
13 13 12 12 11 10 10 10 10 9 10 11 11 10 9 10 10 12 15 15 14 13 12 12 11 11 11 11 12 13 13 13 12 12 13 14 16 19 18 16 14 16 18 19 19 19 18 17 16 15 14 13 13 12 12 12 12 12 11 11 11 11 11 11 11 11 11 11 12 12 12 13 14 15 15 15 14 12 11 10 10 9 8 8 8
13 12 12 11 11 11 10 10 10 9 9 10 10 10 9 10 9 10 13 15 15 14 13 12 11 11 11 12 13 13 13 13 12 12 13 13 14 16 18 18 17 16 17 17 17 17 16 16 16 15 15 14 13 13 13 13 13 12 12 12 12 12 13 13 13 13 13 13 14 14 14 15 16 15 15 14 12 11 10 9 9 8 8 9 9
12 12 11 11 11 11 10 10 10 9 9 9 9 10 9 9 9 9 11 13 14 15 14 13 12 11 11 12 13 14 14 14 13 12 13 13 13 14 16 18 18 17 17 17 16 15 14 15 16 15 15 15 15 15 14 14 14 13 13 13 14 14 15 15 16 15 15 15 16 16 16 16 16 15 13 12 11 10 9 8 8 9 10 10 11
12 12 11 11 11 11 11 10 10 10 9 9 9 9 9 8 9 9 9 11 13 14 15 14 13 12 12 12 13 15 15 15 15 14 13 13 13 13 14 16 17 17 18 18 17 15 14 15 16 16 16 16 17 17 16 16 15 15 15 16 16 17 17 18 18 18 18 18 18 18 17 16 15 13 11 10 9 9 8 8 9 11 11 12 12
13 12 12 11 10 10 11 11 10 10 9 9 8 8 8 8 8 8 8 10 12 13 14 14 14 13 12 12 14 15 16 16 16 16 15 14 13 13 15 15 15 16 17 18 17 16 15 15 16 16 17 17 18 18 18 17 17 17 17 18 19 19 19 20 20 20 20 19 18 17 16 14 13 11 10 9 9 8 9 10 11 12 12 12 12
13 12 12 11 10 10 10 11 11 10 9 9 8 8 7 7 7 7 7 8 10 11 12 13 14 13 13 13 14 15 16 16 17 16 16 15 14 14 15 15 15 16 16 17 18 17 17 17 17 18 18 18 18 18 18 18 18 18 18 19 20 20 20 20 20 19 19 18 17 15 14 12 11 10 9 9 9 9 10 11 12 12 12 12 12
13 12 12 11 10 9 10 11 12 11 10 8 8 8 7 7 7 7 7 7 9 10 11 11 12 13 12 13 13 14 16 17 17 17 17 17 16 15 15 15 15 15 15 16 17 18 18 19 19 19 19 18 18 18 18 19 18 18 18 19 19 19 19 18 18 18 17 16 15 14 13 12 10 10 9 8 9 9 11 12 12 12 12 12 12
14 13 12 12 11 10 10 11 12 12 10 9 8 7 7 7 7 6 7 7 8 9 10 11 11 12 12 12 12 13 14 15 16 17 17 18 18 18 17 16 15 15 15 15 17 18 19 19 19 19 19 18 18 18 18 18 18 18 17 17 17 17 17 16 16 16 15 14 14 13 12 11 10 9 8 8 9 10 11 12 12 12 12 11 11
15 14 12 12 11 10 10 11 12 13 11 9 8 7 7 7 7 6 7 7 7 9 10 10 11 11 11 11 11 12 12 13 14 15 16 17 18 18 18 18 17 16 16 16 17 18 18 18 18 18 18 17 17 17 17 17 17 16 16 15 15 15 15 14 14 14 14 14 13 13 12 11 9 9 9 9 10 11 12 12 12 12 11 11 11
16 14 13 12 11 11 10 11 12 13 12 10 9 8 7 7 7 7 7 7 7 9 10 10 10 10 10 11 11 11 11 12 13 14 15 16 17 17 17 17 17 17 16 17 17 17 17 17 17 17 16 15 15 15 15 15 15 15 14 14 14 13 13 13 13 13 14 14 13 12 11 10 9 9 10 10 11 12 12 12 11 11 10 10 11
16 15 14 13 12 12 11 11 12 13 13 11 9 9 8 7 7 8 8 8 8 9 10 11 11 10 10 11 10 10 11 11 12 13 14 15 15 16 16 16 16 16 16 16 16 16 16 16 15 15 15 14 13 13 14 14 14 14 13 13 13 13 13 13 13 14 14 14 13 12 11 10 10 9 10 11 12 12 11 11 10 10 10 10 11
15 16 15 14 13 13 12 12 12 13 13 12 10 9 8 7 7 8 9 9 9 10 11 11 11 11 11 11 11 10 10 11 11 12 13 14 14 15 15 16 16 16 16 15 16 15 15 14 14 14 14 13 12 12 12 12 13 12 12 12 12 12 12 13 14 14 13 13 12 11 10 10 10 10 11 11 11 11 10 10 9 9 10 10 11
15 16 15 15 14 13 13 12 12 13 13 12 10 10 9 8 8 9 10 10 10 10 11 11 11 11 11 11 11 11 11 10 11 11 12 13 13 14 15 15 15 15 15 15 15 15 14 13 13 13 13 13 12 12 12 11 11 11 11 11 11 12 12 13 14 13 12 11 11 11 10 10 10 10 10 10 10 10 9 9 9 9 10 11 12
14 15 15 15 14 14 14 13 12 13 13 12 11 10 10 9 10 10 11 11 11 11 11 11 11 12 12 12 11 11 11 11 11 11 12 13 13 13 14 14 15 15 14 14 14 14 14 13 12 12 12 12 12 12 11 11 10 10 10 10 11 12 13 13 13 12 11 10 10 10 10 10 10 10 9 9 9 9 9 9 9 10 11 11 12
13 14 15 14 14 14 14 13 13 13 13 12 11 10 10 10 11 12 12 12 11 12 12 12 11 12 12 13 12 12 12 11 11 11 12 13 13 13 13 14 14 14 14 14 14 14 14 13 12 12 12 12 12 12 11 10 10 9 9 10 11 12 13 13 12 11 10 9 10 10 10 10 9 9 9 9 9 9 9 10 10 10 11 11 12
12 13 14 14 14 14 13 13 13 13 13 13 12 11 11 11 12 13 13 12 12 12 12 12 12 12 12 13 13 12 12 12 12 12 12 13 13 13 13 13 14 13 13 13 14 14 13 13 13 12 12 11 11 11 10 10 9 9 9 10 12 13 13 12 11 10 9 9 9 9 9 9 9 9 9 9 9 10 10 10 10 11 11 12 12
11 11 13 14 15 14 13 13 13 14 14 14 13 12 11 12 13 13 13 12 12 12 13 13 13 12 12 13 13 13 13 12 12 12 12 13 13 13 13 13 13 13 13 13 13 13 12 12 12 11 11 11 11 10 10 9 8 8 9 10 12 12 12 11 11 9 8 8 9 9 9 9 9 9 9 9 10 10 10 10 11 11 12 12 12
12 12 13 14 16 15 15 14 14 14 15 15 14 13 12 12 13 13 13 13 13 13 13 13 13 13 13 12 12 13 13 13 13 13 13 13 13 14 14 13 13 13 13 12 12 11 11 11 10 10 10 9 9 9 9 8 8 9 9 10 11 11 11 11 10 9 8 8 9 8 8 9 9 9 9 10 10 11 11 11 11 12 12 12 12
13 13 14 15 16 17 16 16 15 16 17 16 15 13 12 12 12 12 13 13 13 13 13 13 13 13 13 13 12 13 13 13 13 14 13 13 13 13 13 13 13 13 12 12 12 11 10 10 9 8 8 8 8 8 7 7 8 10 11 11 11 11 11 10 9 9 8 8 8 8 8 9 10 10 10 11 11 11 11 11 12 12 12 12 13
15 15 14 14 16 17 17 17 17 17 18 16 14 12 11 11 11 12 12 13 13 14 14 14 13 13 13 13 12 13 13 13 14 14 14 14 13 13 13 13 13 12 12 11 11 11 10 9 8 8 7 7 7 7 7 7 8 10 11 11 11 10 10 8 8 8 8 8 8 8 8 10 11 11 11 11 11 11 11 12 12 12 12 13 13
15 14 13 14 15 17 18 18 18 18 18 17 14 12 11 11 12 12 13 14 14 15 14 14 13 13 13 12 12 13 13 13 13 14 15 15 14 14 14 13 12 12 11 11 11 11 11 10 9 8 8 8 8 8 8 8 8 10 11 10 10 9 9 8 7 7 8 8 7 8 9 10 11 12 12 12 12 12 12 12 12 12 13 13 12
15 14 14 14 15 18 19 19 19 19 18 17 14 12 12 13 13 13 14 15 16 15 15 14 14 13 13 12 12 12 12 12 13 14 14 15 15 15 14 14 13 12 11 11 12 12 11 11 10 9 9 9 9 9 9 9 9 10 10 10 9 8 8 7 7 7 8 8 7 8 10 11 12 13 13 12 12 12 12 11 12 13 13 12 12
17 17 16 15 16 18 19 19 19 19 19 17 15 13 14 15 15 15 16 17 16 16 15 14 14 13 12 12 12 12 12 12 12 13 13 14 15 15 15 14 13 12 12 12 12 12 12 11 10 10 9 9 9 9 9 10 10 10 10 9 8 7 7 7 7 7 8 8 8 9 11 11 12 13 13 13 12 12 11 11 12 12 12 12 12
17 17 16 15 15 17 19 19 19 19 19 17 16 15 16 17 17 17 17 16 16 15 14 14 13 13 12 12 12 11 12 12 12 13 13 13 14 15 15 15 14 13 12 11 12 13 12 11 10 9 9 9 9 9 9 9 10 10 9 9 7 6 6 7 7 7 8 9 9 10 12 12 12 13 13 12 12 12 11 11 11 12 12 12 12
17 17 16 15 15 16 18 19 19 19 19 18 18 17 18 18 18 17 17 16 15 15 14 13 13 12 12 12 12 12 12 12 13 13 13 13 14 14 15 15 14 13 12 11 12 12 12 11 10 9 9 9 9 10 10 10 10 10 9 8 7 5 5 6 7 7 8 9 9 11 12 12 13 13 12 11 11 11 10 10 11 11 12 12 12
17 16 16 16 16 17 19 19 19 20 20 19 19 19 19 19 18 17 17 16 16 16 15 14 13 12 12 12 12 12 12 13 13 13 13 13 13 14 15 15 14 13 13 12 12 12 12 11 10 9 8 9 9 10 10 10 10 10 9 8 7 5 5 5 6 7 8 9 10 10 12 12 12 12 11 11 11 11 10 10 10 11 12 12 12
16 17 17 17 17 18 19 20 20 21 21 21 20 20 19 19 17 16 17 17 18 18 17 16 15 14 13 13 12 12 13 13 13 13 13 13 13 14 14 14 14 13 13 12 12 12 11 11 10 8 8 8 9 10 10 10 9 9 9 8 7 6 5 5 6 7 7 9 10 10 11 12 12 11 11 10 10 10 10 10 11 11 12 12 12
16 17 18 17 17 18 19 21 21 22 23 22 21 20 19 18 16 16 17 18 18 18 18 17 16 15 14 13 13 13 13 13 13 13 13 13 13 13 13 13 13 13 12 12 12 12 11 10 9 8 8 8 9 10 10 10 10 9 9 8 7 6 6 6 6 6 6 8 9 10 10 11 11 10 10 10 9 9 10 10 10 11 11 12 12
13 15 16 17 17 18 20 21 22 23 24 23 21 20 19 18 16 16 17 19 19 19 18 18 16 15 14 14 14 14 14 13 13 13 13 13 13 13 13 13 12 12 12 11 11 11 11 10 9 8 8 9 9 10 10 10 10 10 9 9 8 7 6 6 7 7 6 7 8 9 10 10 9 9 9 9 9 9 10 9 9 10 11 11 12
Wind_Direction
98 97 94 94 95 93 93 95 94 94 96 97 100 103 105 108 107 105 105 103 102 102 100 99 97 97 99 100 102 103 104 106 109 114 121 130 139 147 156 163 164 160 161 164 165 166 160 156 157 157 159 160 159 156 156 159 148 154 174 173 143 113 123 151 176 161 146 132 126 127 125 124 116 111 105 102 104 104 102 99 97 98 100 97 92
101 100 98 96 95 94 96 98 98 99 101 103 104 105 105 103 102 102 103 103 102 100 98 97 97 98 100 103 105 106 109 110 112 116 121 131 144 152 159 163 165 164 165 163 157 155 151 150 153 154 156 156 156 156 156 160 159 167 168 154 118 117 137 168 181 152 146 145 142 139 133 128 120 118 114 111 109 105 104 103 102 103 103 98 95
105 103 102 101 99 99 100 100 101 102 103 102 101 101 99 97 99 103 104 103 100 97 96 95 95 94 96 98 100 104 108 113 117 122 131 144 156 160 161 161 164 171 170 158 146 148 151 151 153 154 156 156 157 159 159 165 175 176 152 133 127 135 154 176 181 155 150 150 146 139 132 130 127 124 118 114 109 107 108 106 106 107 106 103 101
107 108 107 106 105 105 105 104 103 104 104 101 100 99 96 97 100 100 98 97 95 93 92 91 90 90 90 89 91 94 98 104 112 123 142 157 166 166 161 159 164 172 166 154 149 153 156 158 159 157 160 162 162 166 168 172 177 175 156 145 144 149 162 177 172 154 154 151 144 137 131 130 125 119 116 115 113 112 110 109 110 111 111 109 105
108 111 111 110 110 109 109 108 107 107 106 105 103 101 99 99 97 95 94 92 91 88 87 85 85 86 85 85 86 87 88 95 102 122 148 155 160 155 153 165 175 172 159 158 161 160 164 167 165 162 165 166 166 171 175 174 172 168 156 151 151 150 158 170 159 148 150 145 139 136 132 127 120 119 120 118 115 112 111 112 116 116 114 109 100
109 111 113 112 111 111 111 112 113 112 110 108 105 102 99 96 93 92 91 89 86 82 81 79 78 78 80 80 79 79 80 86 97 132 157 141 124 115 148 189 188 174 159 162 166 165 174 175 171 169 168 166 164 171 178 170 163 159 151 149 149 148 153 161 156 145 143 139 134 130 125 121 120 125 124 117 113 112 114 119 120 117 110 100 88
109 111 113 113 112 111 112 114 115 114 110 107 103 100 96 92 90 88 87 84 80 77 75 73 71 70 71 71 69 70 71 77 86 109 138 100 93 102 162 199 183 159 152 155 159 165 176 179 177 176 174 173 168 167 174 165 155 151 150 147 143 144 149 154 152 142 139 135 132 128 120 123 128 127 121 115 113 116 121 123 119 111 103 92 88
109 110 111 111 111 111 112 112 112 109 105 103 99 96 93 90 88 85 83 81 79 77 74 70 67 65 64 62 61 62 66 67 59 46 57 74 84 100 149 171 131 121 127 136 146 155 167 176 180 180 178 180 171 164 167 156 145 146 152 147 141 143 145 147 144 136 134 132 134 134 126 128 131 123 118 116 118 123 124 121 114 104 96 92 98
110 110 111 111 111 111 109 108 106 104 102 100 96 92 89 86 85 85 84 81 80 76 72 69 66 64 61 59 58 57 61 61 46 38 64 77 85 93 104 105 96 103 114 122 128 136 148 161 162 160 166 168 159 160 159 146 138 147 152 144 140 140 141 141 137 132 131 130 133 132 126 123 121 117 118 119 124 127 124 117 109 101 97 99 105
112 112 113 113 112 111 108 106 105 103 101 98 92 87 83 80 80 83 86 82 79 77 75 72 69 66 60 57 57 58 59 60 49 40 61 77 86 89 90 92 93 98 107 112 114 120 131 139 135 132 139 136 136 145 143 137 138 147 145 138 136 134 134 133 132 132 132 130 127 124 119 116 116 119 122 125 129 127 120 112 103 101 105 109 111
115 114 115 115 113 111 108 107 105 101 98 93 87 82 79 79 80 84 87 87 87 87 85 80 75 68 62 59 59 62 60 63 60 49 59 77 88 91 92 93 95 97 100 103 107 110 113 115 114 119 125 119 120 125 124 127 134 139 134 130 127 126 127 125 126 129 127 125 122 120 116 116 120 124 127 130 129 122 113 106 103 107 112 114 114
114 115 115 115 111 108 107 105 102 99 95 90 85 82 80 82 86 90 92 96 96 93 92 89 83 75 69 67 67 66 63 68 70 59 58 75 85 91 94 96 98 98 97 97 100 101 104 103 105 113 118 115 115 117 118 122 128 129 124 121 120 122 124 122 121 122 121 121 120 119 119 122 126 130 131 130 123 114 107 105 109 114 117 117 114
112 114 114 113 112 108 105 102 99 97 93 89 87 86 87 88 92 97 98 97 94 94 96 93 86 81 75 70 68 67 68 73 77 71 64 71 81 88 95 97 95 93 92 95 99 100 101 102 107 111 111 109 109 112 115 120 123 122 117 116 117 120 121 119 119 118 119 120 120 121 124 128 132 134 131 124 115 110 108 111 117 121 121 118 113
117 117 113 112 112 108 105 102 100 97 94 93 92 92 92 92 94 96 95 93 93 95 94 88 83 80 76 71 69 68 72 78 81 82 79 78 83 90 93 93 89 87 92 96 100 100 99 100 106 111 110 109 110 111 113 116 118 115 113 114 117 119 117 116 116 118 120 121 122 125 129 133 134 130 122 114 111 110 113 119 123 124 123 118 113
120 119 114 112 112 110 108 106 103 99 99 99 96 94 92 89 90 91 92 93 94 93 86 83 82 79 77 75 74 72 75 78 83 88 90 90 91 93 93 89 85 89 95 97 99 101 101 100 103 108 112 115 115 113 112 112 111 110 112 114 116 116 115 115 117 119 121 122 124 128 130 131 128 121 115 113 115 115 120 124 126 126 122 118 115
120 118 117 117 116 114 112 109 105 102 103 102 97 93 88 86 87 90 93 95 95 92 85 84 85 83 83 85 83 79 79 79 83 89 91 94 96 96 93 88 87 92 95 97 100 103 104 100 98 101 105 109 110 108 109 109 110 110 113 114 115 115 116 118 119 119 120 121 124 126 126 125 122 117 115 117 118 119 124 127 127 126 122 119 115
122 121 121 122 121 118 115 110 108 108 105 100 97 92 86 84 86 91 93 94 95 93 90 90 89 88 89 90 87 81 82 83 86 89 92 95 97 97 95 93 94 98 98 99 102 105 105 101 98 97 98 100 102 104 106 108 110 112 113 115 115 116 117 117 117 118 119 121 124 125 124 123 121 118 119 120 119 123 128 130 129 126 122 118 113
126 125 124 124 123 120 116 112 112 111 104 96 95 93 88 86 86 90 91 93 95 94 94 94 94 92 89 86 84 82 83 87 90 93 95 96 95 94 97 99 100 101 102 102 103 105 106 104 101 100 101 102 102 103 103 104 107 109 111 114 115 116 115 116 116 117 120 123 125 126 124 122 121 122 122 120 122 129 132 132 130 125 120 115 109
129 127 127 127 126 123 117 113 113 108 102 97 93 90 87 85 87 91 93 94 95 96 99 98 93 89 86 82 83 86 84 86 92 96 99 99 93 85 88 94 98 100 102 103 103 105 105 105 104 104 105 104 103 102 102 103 105 107 109 112 114 115 116 116 116 117 119 121 122 123 122 123 124 124 122 123 129 134 134 133 128 122 117 111 106
133 131 130 130 127 124 118 111 110 108 104 100 92 85 83 84 88 92 94 95 96 100 105 103 94 85 82 83 85 88 86 83 88 97 104 106 101 89 82 86 94 99 103 104 105 106 105 105 106 106 105 104 104 104 106 107 109 111 112 114 115 115 116 114 113 114 117 120 122 122 121 124 127 127 127 130 135 136 134 130 124 118 112 106 102
138 138 136 133 130 126 119 113 115 116 111 105 98 90 88 89 91 94 96 97 98 102 106 105 101 93 85 84 86 86 84 82 85 93 104 111 111 104 94 90 96 102 106 106 105 107 108 109 110 109 108 108 109 110 113 114 115 115 114 115 116 117 115 112 113 115 121 126 125 122 121 125 129 131 132 133 135 134 131 126 119 113 107 101 95
144 143 141 137 134 130 122 117 120 121 115 107 102 97 91 90 93 99 100 97 98 101 104 105 104 100 93 89 88 86 85 83 84 88 96 108 115 116 111 103 101 102 105 106 105 108 111 114 114 113 113 112 113 114 116 116 116 116 116 119 120 120 119 119 121 125 131 131 127 125 127 131 133 134 133 134 134 131 127 119 113 106 101 94 86
148 148 146 143 138 134 128 122 122 121 117 109 102 98 91 89 93 99 101 100 100 101 102 104 106 105 101 97 92 88 86 84 85 87 89 101 111 118 118 113 107 101 100 104 107 109 112 116 116 116 115 114 114 114 114 116 117 118 120 123 125 126 126 127 128 131 132 129 128 129 131 133 133 133 133 133 130 125 119 112 105 100 95 88 83
151 151 150 148 144 139 133 127 125 124 119 112 106 101 95 93 95 96 99 103 106 106 104 105 108 109 106 101 96 93 89 86 88 85 86 91 94 104 113 115 115 109 104 105 108 109 112 116 116 116 115 113 112 111 114 116 117 119 123 127 128 128 127 126 126 128 127 125 128 128 130 132 132 132 132 129 124 119 113 106 100 96 91 88 89
154 153 153 153 150 144 138 132 131 131 124 118 112 104 99 96 99 102 104 108 111 111 110 109 109 110 108 105 102 101 97 95 95 92 91 93 93 97 104 110 115 114 112 111 110 110 113 115 114 113 113 112 112 112 113 114 115 119 122 124 124 123 122 122 123 124 123 124 125 127 130 131 130 130 127 124 118 113 108 103 98 93 91 93 96
159 157 157 159 158 151 143 137 136 137 130 125 117 108 103 99 101 109 112 114 114 113 113 113 111 112 112 110 106 103 102 100 97 93 93 96 100 100 98 103 109 110 112 112 112 116 117 115 112 112 112 112 111 110 108 108 111 114 116 116 116 116 117 118 120 120 122 124 125 128 130 128 127 125 122 118 112 108 105 101 95 93 95 97 98
163 161 161 163 165 158 149 142 142 142 137 132 124 114 108 103 103 110 116 118 117 116 115 114 114 114 115 114 110 106 103 100 96 91 88 87 90 92 93 99 104 107 110 111 114 119 119 116 113 112 111 109 107 105 105 105 107 108 109 110 111 113 114 116 118 121 123 125 126 127 126 123 122 120 115 110 108 106 101 95 93 95 98 99 99
167 165 165 166 168 165 157 149 147 147 143 139 132 124 116 108 106 111 117 121 122 120 116 114 114 115 116 116 114 111 108 106 105 102 98 94 91 89 92 97 101 105 107 109 114 118 117 115 114 112 109 107 105 104 104 104 104 105 107 109 111 113 115 117 120 122 123 124 123 122 120 118 115 111 108 108 107 101 94 92 95 99 100 100 101
170 171 169 169 169 170 167 157 151 151 149 144 138 134 125 115 111 114 118 125 127 123 119 115 114 113 115 116 115 113 112 111 112 111 109 105 102 98 96 96 97 101 104 109 113 115 116 115 114 112 111 109 108 108 107 107 106 107 108 110 112 114 115 117 119 120 121 121 120 118 115 111 107 106 105 103 98 91 90 93 98 100 101 102 100
172 175 175 173 171 172 175 167 156 154 154 149 144 141 134 122 118 121 125 130 132 129 126 121 117 115 114 114 113 111 109 109 109 108 106 106 106 107 107 106 106 108 111 114 116 116 116 115 114 113 112 111 111 112 111 110 109 109 109 110 112 113 115 116 117 119 119 119 117 114 109 105 104 102 98 92 87 87 91 95 97 99 101 101 97
175 177 180 177 174 175 179 174 163 158 157 153 149 148 143 131 126 128 132 135 137 136 133 129 126 122 119 115 111 108 106 105 104 103 102 101 103 106 109 112 115 117 118 119 118 117 116 114 112 110 110 110 111 112 112 112 111 110 111 112 113 114 115 117 118 119 119 117 114 110 105 101 97 90 85 83 84 88 92 95 97 99 100 98 93
177 179 183 181 179 179 180 179 169 163 161 157 153 154 150 141 133 134 139 141 141 140 137 134 133 130 127 122 115 110 106 104 104 103 101 98 98 100 102 106 109 112 115 116 116 115 114 112 110 108 108 108 109 111 112 113 113 112 114 116 117 117 118 119 120 120 119 115 111 106 100 93 85 79 78 81 85 89 93 96 98 99 98 95 91
179 182 185 185 183 181 180 182 175 168 166 161 158 157 154 148 139 137 141 143 143 142 139 137 138 138 136 131 125 119 113 109 107 104 101 97 95 95 97 98 100 103 107 109 111 112 112 111 110 109 109 110 112 114 115 117 118 119 121 122 122 122 122 121 122 122 120 116 109 101 92 82 76 75 77 82 87 91 94 96 97 97 96 92 87
181 184 188 189 188 184 181 182 178 173 169 165 161 159 156 152 144 139 140 142 143 142 138 138 141 143 142 139 135 130 124 118 113 109 104 100 97 95 95 97 99 100 103 106 109 110 112 113 114 114 114 115 117 119 120 123 125 126 127 127 125 124 124 124 125 124 122 116 106 94 83 76 73 74 79 84 88 92 94 94 94 94 92 87 81
181 186 190 193 193 187 184 183 179 175 171 168 165 161 158 156 147 142 141 142 143 143 140 139 140 144 145 144 142 139 134 128 122 117 111 107 103 99 97 98 100 102 104 107 109 111 113 115 117 119 121 122 124 126 127 129 131 131 130 128 126 125 126 127 128 127 122 113 102 91 80 72 70 75 81 85 90 92 92 92 91 90 85 80 76
181 186 190 194 196 192 188 184 179 177 174 170 167 165 162 158 152 147 145 145 146 146 143 142 142 144 145 145 146 144 141 137 133 127 121 116 111 106 103 103 105 107 108 111 113 115 117 119 122 125 127 129 131 132 133 134 133 131 129 127 127 128 129 129 129 127 120 110 99 88 78 71 71 77 83 85 89 90 90 89 87 84 80 76 75
184 187 190 194 197 197 193 186 180 179 177 172 170 171 167 162 156 153 151 151 152 149 147 146 146 146 146 147 148 147 145 143 141 137 132 126 121 116 112 110 111 114 116 118 119 121 123 125 128 131 133 135 135 135 136 136 134 132 129 127 128 128 129 129 128 125 118 107 96 86 77 74 77 82 84 84 86 87 86 86 84 81 77 77 79
186 187 190 193 198 201 198 191 183 180 180 175 173 177 174 168 163 158 156 157 157 153 150 149 149 150 148 148 149 148 148 146 145 144 140 134 129 126 123 119 118 120 123 124 126 128 129 131 134 136 138 138 136 136 137 136 134 131 129 130 128 127 128 128 126 123 115 104 93 87 82 81 84 86 85 84 85 86 86 86 84 80 79 81 81
185 185 188 191 195 200 200 196 189 183 182 179 178 181 181 176 168 161 158 158 158 155 153 151 151 151 150 149 149 149 149 149 149 148 146 142 138 136 134 129 124 124 127 130 131 132 134 137 139 140 142 141 139 138 139 137 133 130 130 130 127 126 126 127 126 120 111 101 93 90 88 86 88 88 87 87 88 89 89 87 84 83 84 83 81
186 185 187 190 193 196 197 197 193 187 184 184 184 182 183 182 171 162 159 158 157 155 154 153 152 153 152 151 151 150 151 152 153 153 153 150 147 145 141 135 130 129 131 134 136 137 138 141 144 146 146 144 140 139 139 138 136 134 134 132 128 128 129 129 127 120 112 104 99 97 94 92 93 92 91 91 92 93 92 89 88 88 88 85 83
189 189 189 190 193 195 195 195 195 192 187 186 189 185 182 181 172 163 159 157 157 157 156 156 156 156 155 155 154 155 155 157 159 158 158 158 155 152 147 142 139 136 136 138 140 142 142 144 147 149 149 144 139 139 139 141 142 139 137 135 133 131 130 130 127 120 114 110 109 107 102 102 101 99 97 96 97 97 95 94 94 92 90 89 87
192 192 191 190 192 194 194 194 196 195 189 186 190 186 178 176 173 166 160 159 160 160 161 160 160 159 159 159 159 159 160 163 164 163 163 163 162 158 153 149 146 143 141 142 144 145 144 145 146 149 149 144 141 142 143 147 147 140 137 136 135 134 132 131 127 119 112 110 113 113 109 108 108 104 101 101 102 100 100 100 98 95 93 93 90
193 193 193 193 192 192 194 195 196 196 191 186 188 184 174 173 174 170 166 165 166 165 164 163 162 161 161 161 162 161 162 164 166 166 166 166 166 164 159 155 153 151 148 147 148 147 145 145 147 149 150 150 149 151 152 153 149 142 139 140 140 140 137 132 126 117 111 110 114 116 113 113 112 109 107 107 106 105 106 105 101 99 99 97 93
189 192 193 193 194 193 194 195 194 195 192 185 184 181 174 174 175 175 175 171 170 169 166 163 161 161 160 160 162 160 160 163 164 164 166 167 168 167 165 162 160 159 155 153 153 151 148 147 147 148 150 152 152 155 157 155 150 145 144 144 145 144 136 129 120 113 112 113 119 121 117 116 115 113 113 111 110 111 111 108 105 105 105 100 96
190 192 191 191 194 195 195 195 193 193 191 184 181 180 178 177 178 181 180 174 172 171 167 163 161 162 161 161 162 161 161 164 162 161 164 166 167 168 167 166 165 165 162 160 157 154 151 147 145 144 145 147 151 156 159 154 150 149 149 148 147 142 132 121 112 110 112 117 125 128 122 119 117 117 117 117 117 118 116 113 111 111 107 101 95
194 194 192 191 193 195 195 194 192 192 189 184 182 183 183 183 183 184 180 174 172 171 169 167 166 166 166 164 163 163 165 165 162 160 162 166 168 169 168 168 169 169 167 165 162 158 155 150 146 143 142 145 151 155 159 157 153 153 152 150 147 139 126 118 113 113 117 121 129 130 126 123 123 123 124 123 123 123 121 118 116 112 105 99 94
196 195 193 192 192 194 194 194 192 190 187 184 184 186 188 188 187 184 178 172 171 172 174 173 172 172 172 169 165 167 170 169 164 160 161 165 168 168 168 170 171 170 169 169 166 164 160 156 153 151 150 151 153 156 160 161 157 154 152 149 144 133 122 118 114 116 122 125 129 131 128 127 129 129 129 129 127 127 126 121 116 110 103 99 95
197 195 193 193 193 192 192 191 191 189 187 187 187 189 193 192 189 182 174 171 171 175 178 176 176 177 178 175 169 170 173 171 165 161 160 163 165 166 167 169 170 170 170 170 170 169 167 165 163 161 160 157 156 157 159 160 156 152 150 146 139 128 120 116 113 116 124 128 131 131 129 130 133 134 134 133 132 131 127 120 113 108 104 101 97
197 195 194 195 194 192 191 190 189 188 188 189 190 192 196 196 190 180 173 172 174 177 179 178 178 180 182 180 174 173 176 173 167 162 160 161 163 164 166 167 169 170 172 171 171 172 172 171 170 168 166 160 156 155 155 155 154 151 147 143 136 127 121 116 112 117 124 128 132 133 131 133 136 137 138 138 137 133 125 118 113 108 106 103 99
201 199 197 197 195 191 190 190 189 188 189 192 194 195 197 197 190 179 176 177 178 181 181 180 181 182 184 183 177 177 179 176 171 165 161 161 162 164 167 168 169 171 172 172 172 173 176 176 176 172 167 162 157 154 153 153 153 152 149 144 138 131 126 119 114 117 124 129 133 135 135 137 139 139 140 142 140 131 123 119 112 106 105 103 100
205 204 199 196 197 193 191 191 190 189 190 193 196 197 198 197 189 182 182 183 182 183 183 183 184 184 187 187 182 182 183 179 174 169 165 164 166 168 171 172 173 173 173 174 174 176 179 181 181 175 168 165 162 157 156 157 158 158 155 151 148 142 133 125 120 120 125 131 136 139 140 140 141 141 141 143 139 129 124 121 111 104 104 104 103
Height
5909 5908 5908 5909 5910 5910 5910 5910 5911 5911 5911 5912 5912 5913 5914 5914 5914 5914 5914 5914 5914 5915 5914 5913 5912 5912 5912 5912 5912 5912 5912 5912 5912 5913 5913 5913 5913 5912 5912 5913 5913 5914 5915 5915 5916 5916 5917 5918 5918 5918 5917 5917 5918 5918 5919 5919 5920 5919 5919 5919 5918 5919 5919 5918 5916 5917 5917 5918 5919 5919 5919 5919 5919 5920 5920 5918 5918 5918 5919 5920 5920 5920 5920 5920 5919
5910 5909 5909 5910 5910 5911 5911 5912 5912 5913 5913 5913 5914 5915 5915 5915 5915 5915 5916 5916 5916 5915 5914 5913 5912 5912 5912 5912 5912 5912 5912 5912 5912 5912 5913 5912 5912 5912 5912 5913 5914 5914 5914 5915 5916 5917 5918 5918 5918 5918 5917 5918 5918 5918 5919 5920 5920 5919 5919 5919 5919 5919 5919 5917 5916 5917 5918 5918 5919 5919 5920 5920 5920 5920 5920 5920 5919 5919 5920 5920 5921 5921 5921 5920 5920
5912 5911 5911 5911 5911 5912 5913 5913 5913 5914 5914 5914 5915 5915 5916 5916 5916 5917 5917 5917 5916 5915 5914 5913 5913 5913 5913 5913 5913 5913 5913 5913 5913 5912 5912 5911 5911 5911 5912 5913 5914 5914 5914 5916 5917 5917 5918 5918 5918 5918 5917 5917 5918 5918 5919 5919 5919 5919 5919 5919 5919 5919 5919 5917 5916 5918 5918 5919 5919 5919 5920 5920 5920 5920 5921 5920 5920 5921 5921 5921 5921 5921 5921 5921 5920
5913 5913 5913 5913 5913 5914 5914 5914 5915 5915 5915 5915 5916 5916 5917 5917 5918 5918 5918 5918 5917 5915 5914 5914 5913 5913 5913 5913 5913 5913 5913 5913 5913 5912 5910 5910 5911 5912 5913 5914 5914 5914 5916 5917 5917 5917 5917 5918 5918 5918 5918 5918 5918 5918 5918 5919 5919 5919 5919 5919 5920 5919 5919 5917 5917 5918 5918 5918 5918 5919 5920 5920 5921 5922 5922 5922 5921 5921 5922 5922 5922 5922 5922 5921 5921
5914 5914 5914 5914 5914 5915 5916 5916 5916 5916 5916 5917 5917 5917 5918 5918 5919 5919 5918 5918 5917 5915 5915 5914 5914 5914 5914 5913 5913 5913 5913 5912 5912 5911 5909 5910 5912 5915 5915 5914 5913 5914 5916 5917 5916 5917 5917 5917 5917 5918 5918 5919 5919 5919 5919 5919 5919 5919 5919 5920 5920 5920 5919 5918 5918 5919 5919 5919 5919 5920 5921 5922 5923 5924 5924 5923 5922 5922 5923 5923 5923 5923 5922 5922 5922
5914 5915 5915 5915 5916 5916 5917 5917 5917 5918 5918 5918 5918 5919 5919 5919 5920 5919 5919 5918 5917 5916 5915 5915 5914 5914 5914 5914 5914 5914 5913 5912 5912 5910 5909 5911 5915 5917 5915 5912 5913 5915 5916 5916 5916 5917 5917 5917 5917 5917 5918 5920 5920 5920 5920 5920 5920 5920 5920 5920 5920 5920 5919 5918 5918 5919 5920 5920 5920 5921 5922 5922 5923 5924 5925 5924 5923 5923 5923 5924 5924 5923 5923 5923 5923
5915 5915 5916 5916 5917 5917 5918 5918 5919 5919 5918 5919 5919 5920 5920 5920 5921 5920 5920 5919 5917 5916 5916 5915 5915 5914 5915 5915 5914 5914 5913 5912 5911 5909 5909 5913 5916 5916 5913 5911 5913 5915 5916 5916 5916 5917 5917 5916 5916 5917 5918 5919 5920 5920 5920 5920 5920 5921 5921 5920 5920 5920 5920 5919 5919 5920 5921 5922 5922 5923 5923 5923 5925 5926 5925 5924 5924 5924 5924 5925 5925 5925 5925 5925 5925
5915 5916 5916 5917 5917 5918 5919 5919 5919 5919 5919 5919 5920 5920 5921 5921 5921 5921 5920 5919 5918 5917 5916 5916 5915 5915 5915 5915 5915 5914 5913 5913 5911 5909 5911 5914 5916 5915 5912 5911 5913 5915 5915 5915 5916 5917 5917 5916 5915 5916 5918 5919 5919 5920 5920 5920 5920 5921 5921 5921 5920 5920 5920 5920 5920 5920 5921 5922 5923 5924 5925 5926 5927 5927 5925 5925 5925 5925 5925 5926 5926 5926 5926 5926 5927
5916 5917 5917 5917 5918 5919 5919 5919 5919 5919 5919 5920 5921 5921 5922 5922 5922 5921 5920 5919 5919 5918 5917 5916 5916 5916 5916 5916 5915 5915 5914 5913 5911 5910 5912 5915 5917 5915 5913 5912 5913 5915 5915 5915 5915 5916 5917 5916 5915 5916 5918 5918 5919 5919 5919 5920 5920 5921 5921 5921 5921 5921 5921 5921 5921 5922 5922 5923 5924 5925 5926 5927 5927 5926 5926 5926 5926 5926 5927 5927 5927 5928 5928 5928 5928
5918 5918 5918 5918 5919 5919 5920 5920 5920 5920 5921 5921 5922 5922 5923 5923 5923 5922 5921 5920 5919 5919 5918 5918 5917 5917 5917 5917 5916 5915 5915 5914 5912 5911 5913 5916 5917 5916 5914 5913 5914 5915 5915 5915 5915 5916 5917 5917 5916 5917 5918 5919 5919 5919 5919 5920 5920 5921 5922 5922 5922 5922 5922 5922 5923 5924 5924 5924 5925 5925 5926 5926 5926 5926 5927 5927 5927 5928 5928 5928 5929 5929 5929 5929 5929
5919 5919 5920 5919 5920 5920 5921 5921 5922 5922 5922 5922 5922 5923 5923 5923 5923 5923 5922 5921 5921 5920 5919 5919 5919 5919 5918 5918 5917 5916 5916 5915 5914 5912 5913 5916 5918 5917 5916 5915 5916 5916 5916 5916 5916 5917 5917 5917 5918 5918 5920 5920 5920 5919 5920 5920 5921 5921 5922 5922 5922 5923 5923 5923 5924 5925 5925 5926 5926 5926 5927 5927 5928 5928 5928 5928 5929 5929 5930 5930 5930 5930 5931 5931 5931
5920 5920 5921 5921 5921 5921 5922 5922 5922 5922 5922 5923 5923 5923 5924 5924 5924 5924 5924 5923 5922 5921 5920 5920 5920 5920 5919 5919 5918 5917 5916 5916 5916 5915 5914 5916 5918 5918 5918 5917 5917 5918 5918 5918 5918 5918 5918 5919 5919 5920 5920 5921 5921 5920 5920 5921 5921 5922 5922 5923 5923 5924 5924 5924 5926 5926 5927 5927 5928 5928 5929 5929 5929 5930 5930 5930 5931 5931 5931 5931 5931 5932 5932 5932 5932
5920 5921 5921 5921 5922 5922 5922 5923 5923 5923 5923 5923 5924 5925 5925 5926 5926 5925 5925 5924 5923 5922 5921 5921 5922 5921 5921 5920 5919 5918 5917 5917 5919 5919 5917 5916 5917 5919 5919 5919 5919 5919 5920 5919 5919 5919 5919 5921 5921 5921 5921 5922 5922 5921 5921 5922 5923 5924 5924 5924 5925 5925 5926 5926 5927 5928 5929 5929 5929 5930 5930 5931 5931 5931 5931 5932 5932 5933 5933 5933 5933 5933 5933 5933 5933
5921 5922 5922 5922 5922 5923 5923 5923 5923 5923 5923 5924 5925 5926 5927 5927 5927 5926 5926 5925 5924 5923 5922 5922 5923 5922 5921 5921 5920 5919 5918 5919 5922 5922 5920 5918 5918 5920 5920 5920 5921 5921 5921 5921 5921 5920 5920 5921 5922 5923 5923 5924 5924 5924 5923 5924 5925 5925 5925 5926 5926 5927 5928 5928 5929 5930 5930 5931 5931 5931 5932 5932 5932 5933 5933 5934 5934 5934 5934 5934 5934 5935 5935 5934 5934
5922 5923 5923 5923 5923 5924 5924 5924 5924 5924 5924 5925 5926 5927 5927 5927 5927 5927 5927 5926 5925 5924 5923 5923 5923 5923 5922 5922 5921 5921 5920 5921 5923 5924 5922 5921 5921 5921 5922 5923 5922 5922 5922 5923 5923 5922 5922 5922 5923 5925 5926 5927 5927 5926 5926 5926 5926 5926 5926 5927 5928 5929 5929 5930 5931 5931 5932 5933 5933 5933 5933 5933 5934 5934 5935 5935 5935 5935 5935 5936 5936 5936 5936 5936 5936
5924 5924 5924 5925 5925 5925 5925 5925 5925 5925 5925 5926 5926 5927 5927 5928 5928 5928 5928 5927 5926 5925 5924 5924 5924 5924 5924 5923 5923 5922 5921 5922 5924 5925 5925 5924 5924 5924 5925 5925 5924 5924 5924 5925 5925 5924 5924 5924 5924 5925 5926 5927 5927 5927 5927 5927 5928 5928 5928 5929 5930 5931 5931 5932 5933 5933 5934 5934 5934 5934 5935 5935 5936 5936 5936 5936 5936 5936 5937 5937 5937 5937 5937 5937 5937
5924 5925 5925 5926 5926 5926 5926 5926 5926 5926 5926 5927 5926 5926 5927 5929 5929 5929 5929 5928 5927 5926 5925 5925 5925 5925 5925 5925 5924 5923 5923 5924 5926 5927 5927 5926 5926 5926 5927 5928 5927 5926 5926 5927 5927 5926 5926 5926 5926 5926 5926 5927 5927 5928 5928 5929 5930 5930 5931 5931 5932 5932 5933 5934 5934 5934 5935 5935 5935 5935 5936 5937 5937 5937 5937 5937 5938 5938 5938 5938 5938 5938 5939 5939 5939
5925 5926 5927 5927 5927 5927 5927 5927 5927 5927 5927 5927 5926 5927 5928 5930 5931 5930 5930 5929 5928 5928 5927 5926 5926 5926 5926 5926 5925 5924 5924 5925 5928 5929 5929 5927 5926 5927 5928 5930 5930 5929 5929 5928 5928 5928 5928 5928 5928 5928 5929 5929 5929 5930 5930 5931 5932 5932 5932 5933 5933 5934 5934 5934 5935 5935 5936 5936 5937 5937 5937 5938 5938 5938 5938 5939 5939 5939 5939 5939 5939 5940 5940 5941 5940
5925 5926 5927 5927 5928 5928 5928 5928 5927 5928 5928 5928 5927 5928 5930 5931 5932 5932 5931 5930 5929 5929 5929 5928 5927 5927 5927 5927 5927 5926 5925 5926 5929 5931 5931 5929 5927 5926 5928 5930 5931 5930 5930 5930 5929 5929 5929 5930 5930 5931 5931 5932 5932 5932 5932 5933 5933 5933 5934 5934 5934 5934 5935 5935 5935 5936 5937 5937 5938 5938 5939 5939 5939 5939 5940 5940 5940 5940 5940 5941 5941 5942 5942 5942 5942
5926 5927 5927 5928 5928 5928 5929 5928 5928 5929 5929 5929 5929 5929 5930 5932 5933 5934 5933 5931 5931 5931 5930 5930 5929 5928 5928 5928 5928 5928 5927 5927 5929 5932 5933 5933 5930 5928 5928 5929 5930 5931 5932 5931 5931 5931 5931 5932 5932 5933 5933 5934 5934 5934 5934 5934 5934 5935 5935 5935 5935 5935 5935 5936 5937 5937 5938 5939 5939 5939 5939 5940 5940 5940 5941 5941 5941 5941 5942 5942 5943 5943 5943 5943 5943
5926 5927 5928 5928 5929 5929 5929 5929 5930 5930 5930 5931 5931 5931 5931 5933 5934 5935 5934 5933 5932 5932 5932 5931 5931 5930 5930 5929 5929 5929 5928 5928 5928 5931 5934 5936 5935 5933 5931 5930 5931 5932 5933 5933 5933 5933 5934 5934 5935 5935 5935 5935 5935 5935 5935 5936 5936 5935 5936 5936 5936 5936 5937 5937 5938 5939 5939 5939 5940 5940 5941 5941 5942 5942 5942 5942 5943 5943 5943 5944 5944 5944 5945 5944 5944
5927 5928 5928 5929 5929 5930 5930 5930 5931 5931 5931 5932 5932 5932 5933 5934 5935 5936 5936 5934 5933 5933 5933 5933 5933 5932 5932 5931 5931 5930 5930 5929 5929 5930 5932 5936 5937 5937 5935 5933 5933 5933 5933 5934 5935 5935 5936 5936 5937 5937 5937 5937 5937 5937 5937 5937 5937 5936 5937 5937 5937 5938 5938 5939 5939 5940 5940 5940 5941 5942 5942 5943 5943 5943 5944 5944 5944 5945 5945 5945 5946 5946 5946 5945 5945
5928 5928 5929 5929 5930 5930 5931 5931 5931 5932 5932 5932 5933 5933 5934 5934 5935 5936 5937 5936 5935 5934 5934 5934 5934 5934 5934 5934 5933 5932 5932 5931 5931 5930 5931 5934 5937 5939 5939 5937 5935 5934 5934 5935 5936 5937 5938 5938 5938 5938 5938 5938 5938 5938 5938 5938 5937 5937 5938 5938 5938 5939 5939 5940 5940 5941 5941 5942 5943 5943 5943 5944 5944 5945 5945 5946 5946 5946 5947 5947 5947 5947 5947 5947 5947
5928 5929 5929 5930 5930 5931 5931 5931 5932 5932 5933 5933 5934 5934 5935 5935 5936 5936 5937 5938 5937 5936 5935 5935 5935 5936 5936 5936 5935 5934 5934 5933 5933 5932 5932 5933 5935 5938 5940 5940 5938 5936 5936 5936 5937 5938 5939 5939 5939 5940 5939 5939 5939 5939 5939 5939 5939 5939 5939 5939 5940 5940 5940 5941 5941 5942 5942 5943 5944 5944 5945 5946 5946 5947 5947 5948 5948 5948 5948 5949 5948 5948 5948 5948 5948
5928 5929 5930 5931 5931 5931 5932 5932 5932 5933 5933 5934 5934 5935 5935 5936 5937 5937 5938 5939 5939 5939 5938 5937 5937 5937 5937 5937 5937 5937 5937 5936 5935 5934 5934 5935 5935 5937 5940 5941 5941 5939 5939 5939 5939 5939 5940 5940 5940 5941 5941 5941 5941 5941 5941 5940 5940 5941 5941 5941 5941 5941 5942 5942 5943 5943 5944 5945 5945 5946 5947 5948 5948 5949 5949 5949 5950 5950 5950 5950 5950 5950 5950 5949 5949
5929 5930 5930 5931 5932 5932 5932 5932 5933 5934 5934 5935 5935 5935 5936 5936 5937 5938 5939 5939 5940 5940 5940 5940 5939 5939 5939 5939 5939 5939 5939 5939 5938 5936 5936 5936 5937 5937 5938 5941 5942 5942 5941 5941 5941 5941 5941 5941 5941 5942 5942 5942 5942 5942 5942 5942 5942 5942 5942 5943 5943 5943 5944 5944 5945 5945 5946 5947 5948 5948 5949 5950 5950 5951 5951 5951 5951 5951 5951 5951 5951 5951 5951 5950 5950
5929 5930 5931 5932 5933 5933 5933 5933 5934 5935 5935 5935 5936 5936 5936 5937 5938 5938 5939 5939 5940 5940 5941 5941 5941 5941 5941 5941 5940 5940 5940 5940 5939 5938 5937 5937 5937 5937 5938 5939 5942 5942 5942 5942 5943 5943 5943 5943 5943 5943 5943 5943 5943 5942 5943 5943 5944 5944 5944 5945 5945 5945 5946 5946 5947 5947 5948 5949 5950 5951 5951 5952 5952 5952 5953 5953 5953 5953 5953 5953 5953 5952 5952 5952 5951
5930 5931 5932 5933 5933 5934 5934 5934 5935 5936 5936 5937 5937 5937 5937 5938 5938 5939 5939 5940 5940 5940 5941 5941 5941 5942 5942 5942 5942 5942 5942 5942 5942 5942 5941 5940 5940 5939 5939 5939 5941 5941 5942 5943 5944 5945 5945 5945 5945 5944 5944 5944 5944 5944 5945 5945 5946 5946 5947 5947 5947 5948 5948 5948 5949 5950 5950 5951 5952 5953 5953 5954 5954 5954 5954 5954 5954 5954 5954 5954 5954 5953 5953 5953 5953
5930 5931 5932 5933 5934 5934 5935 5935 5935 5936 5937 5938 5938 5938 5938 5939 5939 5939 5940 5940 5941 5940 5941 5941 5942 5942 5943 5943 5943 5944 5944 5945 5945 5945 5945 5945 5944 5943 5942 5941 5941 5942 5942 5944 5945 5946 5946 5946 5946 5946 5946 5946 5947 5947 5947 5947 5948 5949 5949 5949 5950 5950 5950 5951 5951 5952 5952 5953 5954 5954 5955 5955 5955 5955 5955 5956 5956 5955 5955 5955 5955 5955 5954 5954 5954
5930 5931 5932 5933 5934 5935 5935 5936 5936 5937 5938 5939 5939 5939 5939 5940 5940 5940 5941 5941 5941 5941 5941 5942 5942 5942 5943 5943 5943 5944 5944 5945 5946 5946 5947 5947 5947 5947 5946 5945 5945 5945 5945 5946 5946 5947 5947 5948 5948 5948 5948 5948 5949 5949 5949 5949 5950 5950 5951 5952 5952 5952 5953 5953 5953 5954 5954 5954 5955 5955 5956 5956 5957 5957 5957 5957 5957 5957 5956 5956 5956 5956 5956 5956 5956
5930 5931 5933 5934 5935 5935 5936 5937 5937 5937 5938 5939 5940 5940 5940 5941 5941 5941 5941 5942 5942 5942 5942 5943 5943 5943 5943 5943 5943 5943 5944 5944 5945 5946 5946 5947 5948 5948 5949 5949 5949 5948 5948 5948 5948 5948 5948 5948 5949 5949 5949 5950 5950 5950 5950 5951 5951 5952 5952 5953 5954 5954 5955 5955 5955 5955 5956 5956 5957 5957 5957 5958 5958 5959 5959 5958 5958 5958 5958 5958 5958 5957 5957 5957 5957
5931 5932 5933 5934 5935 5936 5937 5937 5938 5938 5939 5940 5940 5941 5941 5942 5942 5942 5942 5942 5943 5943 5944 5944 5944 5944 5944 5944 5944 5944 5944 5944 5945 5945 5946 5947 5947 5948 5949 5949 5949 5949 5949 5949 5949 5949 5949 5949 5949 5950 5950 5951 5951 5952 5952 5952 5953 5953 5954 5955 5955 5956 5956 5957 5957 5957 5957 5958 5958 5959 5959 5960 5960 5960 5960 5960 5960 5959 5959 5959 5959 5959 5959 5959 5959
5931 5932 5933 5934 5936 5936 5937 5938 5938 5939 5940 5940 5941 5941 5942 5942 5943 5943 5943 5943 5944 5944 5945 5945 5945 5945 5945 5945 5945 5945 5945 5945 5946 5946 5946 5946 5947 5947 5948 5948 5949 5949 5949 5949 5949 5949 5950 5950 5950 5951 5951 5952 5953 5953 5954 5954 5954 5955 5956 5956 5957 5957 5958 5958 5958 5959 5959 5959 5960 5961 5961 5961 5961 5961 5961 5961 5961 5961 5961 5961 5961 5960 5960 5961 5961
5931 5932 5933 5935 5936 5937 5937 5938 5939 5939 5940 5941 5941 5942 5943 5943 5943 5944 5944 5944 5944 5945 5945 5946 5946 5946 5947 5947 5947 5947 5947 5947 5947 5947 5947 5947 5948 5948 5948 5949 5949 5949 5950 5950 5950 5950 5951 5951 5952 5952 5953 5953 5954 5955 5955 5956 5956 5957 5957 5958 5958 5959 5959 5960 5960 5960 5961 5961 5961 5962 5962 5962 5962 5962 5962 5963 5963 5963 5963 5962 5962 5962 5962 5962 5963
5931 5932 5933 5935 5936 5937 5938 5938 5939 5940 5941 5941 5942 5943 5943 5944 5944 5944 5945 5945 5945 5946 5946 5946 5947 5948 5948 5948 5948 5948 5948 5948 5948 5949 5949 5949 5949 5949 5950 5950 5951 5951 5951 5951 5952 5952 5953 5953 5954 5954 5954 5955 5956 5956 5957 5958 5958 5959 5959 5960 5960 5960 5961 5961 5961 5962 5962 5963 5963 5963 5963 5963 5963 5963 5964 5964 5964 5964 5964 5964 5964 5964 5964 5964 5964
5931 5932 5933 5935 5936 5937 5938 5938 5939 5940 5941 5942 5943 5943 5944 5944 5945 5945 5945 5946 5946 5946 5947 5947 5948 5948 5949 5949 5949 5949 5950 5950 5950 5950 5950 5950 5951 5951 5952 5952 5952 5953 5953 5953 5954 5954 5955 5955 5956 5956 5956 5957 5957 5958 5959 5959 5960 5961 5961 5962 5962 5962 5962 5963 5963 5963 5964 5964 5964 5964 5964 5964 5965 5965 5965 5965 5965 5965 5966 5966 5966 5966 5966 5966 5966
5931 5932 5933 5935 5937 5938 5938 5939 5940 5941 5942 5943 5943 5944 5944 5944 5945 5945 5946 5946 5947 5947 5947 5948 5948 5949 5950 5950 5950 5951 5951 5951 5951 5952 5952 5952 5952 5953 5953 5954 5954 5955 5955 5955 5956 5956 5957 5957 5958 5958 5958 5959 5959 5959 5960 5961 5961 5962 5963 5963 5964 5964 5964 5964 5965 5965 5965 5965 5965 5965 5965 5965 5966 5966 5966 5967 5967 5967 5967 5967 5967 5967 5968 5967 5967
5931 5932 5934 5935 5937 5938 5939 5939 5940 5941 5942 5943 5943 5944 5944 5944 5945 5945 5946 5947 5947 5947 5948 5948 5949 5950 5950 5951 5952 5952 5952 5952 5952 5953 5953 5954 5954 5955 5955 5956 5956 5957 5957 5957 5958 5958 5958 5959 5959 5960 5960 5960 5960 5961 5962 5962 5963 5963 5964 5965 5965 5965 5966 5966 5966 5966 5967 5967 5967 5967 5967 5967 5967 5967 5968 5968 5968 5968 5969 5969 5969 5969 5969 5969 5969
5931 5932 5933 5935 5936 5938 5939 5940 5941 5941 5942 5943 5943 5944 5944 5945 5945 5946 5946 5947 5948 5948 5949 5949 5950 5950 5951 5952 5952 5953 5953 5953 5953 5954 5954 5955 5956 5956 5957 5957 5958 5958 5959 5959 5959 5960 5960 5960 5961 5961 5961 5961 5962 5962 5963 5964 5964 5965 5965 5966 5966 5967 5967 5967 5967 5968 5968 5968 5968 5968 5968 5968 5968 5969 5969 5969 5969 5970 5970 5970 5970 5970 5971 5970 5970
5931 5932 5933 5934 5935 5937 5938 5940 5941 5941 5942 5942 5943 5943 5944 5945 5946 5946 5947 5948 5948 5949 5949 5950 5950 5951 5952 5952 5953 5954 5954 5954 5954 5955 5955 5956 5957 5957 5958 5959 5959 5960 5960 5961 5961 5961 5961 5962 5962 5962 5962 5963 5963 5964 5965 5965 5966 5966 5967 5967 5967 5968 5968 5968 5968 5969 5969 5969 5969 5969 5969 5969 5970 5970 5970 5970 5970 5971 5971 5971 5972 5972 5972 5972 5971
5930 5931 5932 5933 5935 5936 5938 5939 5940 5941 5941 5942 5943 5944 5945 5946 5947 5947 5948 5948 5949 5950 5950 5950 5951 5951 5952 5953 5954 5954 5955 5955 5955 5956 5956 5957 5958 5958 5959 5960 5960 5961 5962 5962 5962 5962 5963 5963 5963 5963 5963 5964 5964 5965 5966 5966 5967 5967 5968 5968 5969 5969 5969 5969 5970 5970 5970 5970 5970 5970 5970 5970 5971 5971 5971 5971 5972 5972 5973 5973 5973 5973 5973 5973 5972
5930 5931 5931 5933 5934 5936 5937 5939 5940 5941 5942 5943 5944 5944 5945 5946 5947 5947 5948 5948 5949 5950 5950 5951 5951 5952 5952 5953 5954 5954 5955 5955 5956 5956 5957 5958 5958 5959 5960 5961 5961 5962 5963 5963 5963 5963 5964 5964 5964 5964 5964 5965 5965 5966 5966 5967 5968 5968 5969 5969 5970 5970 5970 5971 5971 5971 5971 5971 5971 5971 5971 5971 5971 5972 5972 5972 5973 5973 5974 5974 5975 5975 5974 5974 5973
5930 5931 5932 5932 5934 5935 5937 5938 5939 5941 5942 5943 5944 5945 5946 5947 5947 5947 5947 5948 5949 5950 5951 5951 5952 5952 5953 5953 5954 5954 5955 5956 5956 5957 5957 5958 5959 5960 5960 5961 5962 5963 5964 5964 5964 5964 5965 5965 5965 5965 5966 5966 5966 5967 5967 5968 5969 5969 5969 5970 5971 5971 5971 5972 5972 5972 5972 5972 5973 5973 5973 5973 5973 5973 5973 5973 5974 5975 5975 5976 5976 5976 5975 5975 5974
5929 5930 5931 5932 5933 5934 5936 5937 5939 5941 5942 5943 5944 5945 5946 5946 5947 5947 5947 5947 5948 5950 5951 5951 5952 5953 5953 5954 5954 5955 5955 5956 5956 5957 5958 5958 5959 5960 5961 5962 5963 5964 5964 5965 5965 5965 5966 5966 5966 5967 5967 5967 5967 5968 5968 5969 5970 5970 5970 5971 5971 5972 5972 5973 5973 5973 5973 5973 5974 5974 5973 5973 5973 5974 5974 5974 5975 5976 5976 5977 5977 5976 5976 5976 5975
5928 5929 5930 5931 5932 5933 5935 5937 5938 5940 5942 5943 5944 5945 5946 5946 5946 5946 5947 5948 5949 5950 5951 5952 5952 5953 5953 5954 5954 5955 5955 5956 5957 5957 5958 5959 5960 5960 5961 5962 5963 5964 5965 5966 5966 5966 5967 5967 5967 5968 5968 5968 5968 5969 5969 5970 5970 5971 5971 5972 5972 5973 5973 5973 5973 5974 5974 5974 5974 5974 5974 5974 5974 5975 5975 5975 5976 5977 5977 5977 5977 5977 5977 5977 5976
5928 5929 5930 5930 5931 5933 5935 5936 5938 5940 5941 5943 5944 5945 5945 5945 5946 5946 5947 5948 5950 5951 5951 5952 5953 5953 5954 5954 5955 5955 5956 5956 5957 5958 5958 5959 5960 5961 5962 5963 5964 5965 5966 5966 5967 5967 5967 5968 5968 5969 5969 5969 5969 5970 5970 5971 5971 5971 5972 5973 5973 5974 5974 5974 5974 5975 5975 5975 5975 5975 5975 5975 5975 5975 5976 5976 5977 5978 5978 5978 5978 5978 5978 5978 5978
5927 5928 5929 5930 5931 5932 5934 5936 5938 5939 5941 5942 5943 5944 5944 5945 5946 5947 5948 5949 5950 5951 5952 5952 5953 5953 5954 5954 5955 5955 5956 5957 5957 5958 5959 5960 5960 5961 5962 5963 5964 5965 5966 5967 5967 5968 5968 5969 5969 5969 5969 5970 5970 5970 5971 5971 5971 5972 5973 5973 5974 5974 5975 5975 5975 5975 5975 5975 5976 5976 5976 5976 5976 5976 5977 5977 5978 5978 5979 5979 5979 5979 5979 5979 5979
5926 5928 5929 5930 5931 5932 5933 5935 5937 5939 5941 5942 5942 5943 5944 5945 5946 5947 5948 5949 5950 5951 5952 5952 5953 5953 5954 5954 5955 5955 5956 5957 5958 5958 5959 5960 5961 5962 5963 5964 5965 5966 5967 5967 5968 5968 5969 5969 5970 5970 5970 5970 5970 5971 5971 5972 5972 5973 5974 5974 5974 5975 5975 5975 5975 5976 5976 5976 5976 5976 5977 5977 5977 5977 5978 5978 5979 5979 5980 5980 5980 5980 5980 5980 5980
5926 5927 5928 5929 5930 5931 5933 5935 5936 5938 5940 5941 5942 5943 5944 5945 5946 5947 5948 5949 5950 5951 5951 5952 5952 5953 5954 5955 5955 5956 5957 5958 5958 5959 5959 5960 5961 5962 5963 5965 5966 5966 5967 5968 5968 5969 5969 5970 5970 5971 5971 5971 5971 5971 5972 5972 5973 5974 5974 5975 5975 5975 5976 5976 5976 5976 5977 5977 5977 5977 5978 5978 5978 5978 5979 5979 5980 5980 5981 5981 5981 5981 5981 5982 5982
5925 5926 5927 5929 5930 5931 5932 5934 5936 5937 5939 5940 5941 5942 5944 5945 5946 5948 5948 5949 5949 5950 5951 5952 5952 5953 5954 5955 5955 5956 5957 5958 5958 5959 5960 5961 5961 5962 5964 5965 5966 5967 5968 5968 5969 5969 5970 5970 5971 5971 5971 5971 5972 5972 5973 5973 5974 5974 5974 5975 5975 5976 5976 5977 5977 5977 5977 5977 5978 5978 5978 5979 5979 5979 5979 5980 5980 5981 5982 5982 5982 5982 5983 5983 5983
5925 5926 5927 5929 5930 5931 5932 5933 5935 5936 5938 5940 5941 5942 5943 5945 5946 5948 5948 5948 5949 5950 5951 5952 5952 5953 5954 5955 5955 5956 5957 5958 5959 5959 5960 5961 5962 5963 5964 5965 5966 5967 5968 5968 5969 5970 5970 5971 5971 5971 5971 5972 5972 5973 5973 5973 5974 5974 5974 5975 5975 5976 5976 5977 5977 5978 5978 5978 5978 5979 5979 5979 5980 5980 5980 5981 5981 5982 5982 5983 5983 5983 5984 5984 5984